Probability
0 0 0 0 0 0 0 0 0 0 0 0 0 0 0 0 0 0 0 0 0 0 0 0 0 1 3 3 2 1 1 4 6 6 5 3 1 0 0 0 0 0 0 0
0 0 0 0 0 0 0 0 0 0 0 0 0 0 0 0 0 0 0 0 0 0 0 0 1 2 3 4 3 3 2 3 5 6 6 4 2 1 0 0 0 0 0 0
0 0 0 0 0 0 0 0 0 0 0 0 0 0 0 0 0 0 0 0 0 0 0 0 1 2 3 4 4 4 4 3 4 6 7 6 4 3 1 1 1 1 1 1
0 0 0 0 0 0 0 0 0 0 0 0 0 0 0 0 0 0 0 0 0 0 0 0 1 1 2 3 3 4 4 4 5 7 8 7 6 4 3 3 3 4 4 4
0 0 0 0 0 0 0 0 0 0 0 0 0 0 0 0 0 0 0 0 0 0 0 0 0 0 1 2 3 3 3 4 5 6 8 8 6 4 3 4 5 6 6 5
0 0 0 0 0 0 0 0 0 0 0 0 0 0 0 0 0 0 0 0 0 0 0 0 0 0 0 1 1 2 2 2 3 4 6 8 6 4 3 3 4 6 6 5
0 0 0 0 0 0 0 0 0 0 0 0 0 0 0 0 0 0 0 0 0 0 0 0 0 0 0 0 0 1 1 0 1 1 3 6 6 4 3 3 4 6 6 5
0 0 0 0 0 0 0 0 0 0 0 0 0 0 0 0 0 0 0 0 0 0 0 0 0 0 0 0 0 0 0 0 0 1 2 4 4 4 4 4 5 6 6 5
0 0 0 0 0 0 0 0 0 0 0 0 0 0 0 0 0 0 0 0 0 0 0 0 0 0 0 0 0 0 0 0 0 1 2 3 3 4 4 5 6 6 5 4
0 0 0 0 0 0 0 0 0 0 0 0 0 0 0 0 0 0 0 0 0 0 0 0 0 0 0 0 0 0 0 0 0 0 1 1 3 4 5 6 6 4 3 2
0 0 0 0 0 0 0 0 0 0 0 0 0 0 0 0 0 0 0 0 0 0 0 0 0 0 0 0 0 0 0 0 0 0 0 1 2 3 4 5 5 3 1 1
0 0 0 0 0 0 0 0 0 0 0 0 0 0 0 0 0 0 0 0 0 0 0 0 0 0 0 0 0 0 0 0 0 0 0 0 1 1 1 2 2 1 0 0
0 0 0 0 0 0 0 0 0 0 0 0 0 0 0 0 0 0 0 0 0 0 0 0 0 0 0 0 0 0 0 0 0 0 0 0 0 0 0 0 0 0 0 0
0 0 0 0 0 0 0 0 0 0 0 0 0 0 0 0 0 0 0 0 0 0 0 0 0 0 0 0 0 0 0 0 0 0 0 0 0 0 0 0 0 0 0 0
0 0 0 0 0 0 0 0 0 0 0 0 0 0 0 0 0 0 0 0 0 0 0 0 0 0 0 0 0 0 0 0 0 0 0 0 0 0 0 0 0 0 0 0
0 0 0 0 0 0 0 0 0 0 0 0 0 0 0 0 0 0 0 0 0 0 0 0 0 0 0 0 0 0 0 0 0 0 0 0 0 0 0 0 0 0 0 0
0 0 0 0 0 0 0 0 0 0 0 0 0 0 0 0 0 0 0 0 0 0 0 0 0 0 0 0 0 0 0 0 0 0 0 0 0 0 0 0 0 0 0 0
0 0 0 0 0 0 0 0 0 0 0 0 0 0 0 0 0 0 0 0 0 0 0 0 0 0 0 0 0 0 0 0 0 0 0 0 0 0 0 0 0 0 0 0
0 0 0 0 0 0 0 0 0 0 0 0 0 0 0 0 0 0 0 0 0 0 0 0 0 0 0 0 0 0 0 0 0 0 0 0 0 0 0 0 0 0 0 0
0 0 0 0 0 0 0 0 0 0 0 0 0 0 0 0 0 0 0 0 0 0 0 0 0 0 0 0 0 0 0 0 0 0 0 0 0 0 0 0 0 0 0 0
0 0 0 0 0 0 0 0 0 0 0 0 0 0 0 0 0 0 0 0 0 0 0 0 0 0 0 0 0 0 0 0 0 0 0 0 0 0 0 0 0 0 0 0
0 0 0 0 0 0 0 0 0 0 0 0 0 0 0 0 0 0 0 0 0 0 0 0 0 0 0 0 0 0 0 0 0 0 0 0 0 0 0 0 0 0 0 0
0 0 0 0 0 0 0 0 0 0 0 0 0 0 0 0 0 0 0 0 0 0 0 0 0 0 0 0 0 0 0 0 0 0 0 0 0 0 0 0 0 0 0 0
0 0 0 0 0 0 0 0 0 0 0 0 0 0 0 0 0 0 0 0 0 0 0 0 0 0 0 0 0 0 0 0 0 0 0 0 0 0 0 0 0 0 0 0
0 0 0 0 0 0 0 0 0 0 0 0 0 0 0 0 0 0 0 0 0 0 0 0 0 0 0 0 0 0 0 0 0 0 0 0 0 0 0 0 0 0 0 0
0 0 0 0 0 0 0 0 0 0 0 0 0 0 0 0 0 0 0 0 0 0 0 0 0 0 0 0 0 0 0 0 0 0 0 0 0 0 0 0 0 0 0 0
Wind_Speed
1 1 2 2 4 5 5 5 5 3 3 2 4 5 4 2 1 2 1 1 1 1 2 2 3 3 4 4 4 3 2 1 1 1 1 2 2 2 1 2 2 3 3 3
1 2 3 4 4 5 5 5 5 3 4 3 3 5 3 2 3 3 2 1 1 1 2 3 4 4 3 3 3 2 2 1 1 0 1 1 1 1 2 1 2 2 2 3
1 2 3 3 3 5 5 5 5 4 5 3 3 4 4 3 3 1 2 1 1 2 2 2 3 3 3 3 2 2 2 1 1 1 1 1 0 0 1 1 2 2 2 2
2 3 4 3 3 4 5 4 5 4 3 3 3 3 2 2 2 1 1 2 2 2 2 3 3 3 3 3 3 2 2 2 2 1 1 1 0 1 2 2 1 2 1 1
1 2 3 3 3 4 3 4 5 4 4 4 4 3 3 2 2 1 1 2 3 3 4 5 6 5 5 4 4 3 3 3 3 2 1 1 1 1 1 1 1 1 1 1
2 2 2 3 4 3 3 3 3 3 2 5 5 5 3 2 2 1 2 4 5 5 5 6 6 5 5 5 5 4 4 4 4 3 2 1 1 2 2 2 2 2 1 1
2 1 0 1 2 1 2 0 1 2 4 5 3 4 2 1 2 3 3 4 4 4 5 5 6 6 6 6 6 5 5 5 5 4 3 3 2 2 2 2 2 2 2 2
3 1 1 0 1 2 3 3 2 2 3 2 2 4 1 2 2 3 3 3 4 4 4 5 5 5 5 5 5 5 5 5 5 4 4 4 3 2 2 3 2 2 2 2
3 2 2 1 2 2 2 2 2 2 1 2 3 2 1 1 3 3 4 4 4 4 5 5 5 5 5 5 5 5 5 5 6 5 4 4 4 4 4 3 3 2 2 2
3 4 3 2 1 2 2 1 0 1 2 3 3 3 3 2 1 2 3 3 3 3 4 4 4 5 5 5 5 5 5 5 5 5 5 5 4 4 3 3 4 4 4 4
3 2 3 2 1 1 0 0 1 1 1 2 2 1 1 2 2 2 2 2 2 3 3 4 4 4 4 5 5 5 5 5 5 5 4 4 4 4 4 4 4 4 4 4
2 2 3 3 1 2 1 1 1 1 2 2 2 3 1 3 3 2 2 2 3 3 3 3 3 3 4 4 5 5 5 5 5 5 5 5 5 5 5 4 4 4 4 4
3 1 3 2 0 1 1 1 2 2 2 3 3 4 1 2 1 1 1 2 2 3 3 3 3 4 4 4 4 4 5 5 5 5 5 5 5 5 5 5 5 5 5 5
1 1 2 3 3 3 4 4 4 3 3 4 6 5 4 2 1 1 1 1 2 2 2 3 3 3 3 3 4 4 4 4 4 4 4 5 5 5 5 5 5 5 5 4
1 2 3 6 8 5 6 7 6 7 7 6 6 6 7 4 2 1 1 1 2 2 2 3 3 3 3 3 4 4 4 4 4 4 4 4 5 5 5 5 5 5 5 5
1 2 3 5 5 5 8 9 8 9 8 9 8 9 5 3 2 1 1 1 2 2 3 3 3 3 3 3 4 4 4 4 4 4 4 4 5 5 5 5 5 5 5 5
1 0 1 4 5 5 7 7 7 6 5 6 8 7 3 3 2 1 1 1 2 1 2 2 2 3 3 3 3 3 3 4 4 4 4 4 5 5 5 5 5 5 5 5
2 1 1 3 4 6 6 2 3 5 7 6 6 4 3 3 2 1 1 2 1 2 2 2 2 2 2 2 3 3 3 3 4 4 4 4 4 5 5 5 5 5 5 5
5 3 2 2 4 8 6 3 3 4 6 5 6 4 2 1 2 2 1 1 1 1 2 2 2 2 2 2 3 3 3 4 4 4 5 5 5 5 5 5 5 5 5 5
3 4 3 3 4 7 5 2 2 0 6 4 4 3 2 0 3 4 1 1 1 1 1 1 2 2 2 3 3 3 4 4 4 5 5 5 5 5 5 6 5 5 5 5
4 4 6 6 6 9 4 3 4 4 6 2 3 3 3 4 4 3 1 2 2 2 2 2 2 2 2 3 2 3 4 4 4 4 5 5 5 5 5 5 5 5 5 5
8 7 7 6 7 11 5 6 7 7 1 1 2 2 3 3 2 2 2 2 2 2 2 2 2 3 3 2 2 3 5 5 4 4 5 5 5 5 4 4 5 5 5 5
8 9 6 9 10 5 6 7 5 2 2 3 2 2 2 3 4 4 3 3 3 3 3 2 2 3 3 3 2 4 5 4 4 4 5 5 5 5 4 4 5 5 4 4
6 4 4 6 9 7 7 7 6 5 5 5 4 4 4 5 6 5 4 4 4 4 3 2 2 3 4 3 3 3 4 4 3 4 5 5 5 5 4 4 3 4 4 4
7 6 5 8 8 7 8 9 9 7 5 5 5 5 5 5 6 5 5 4 4 4 3 2 3 4 5 4 4 3 3 3 3 4 5 5 4 4 5 4 4 5 5 5
9 10 10 11 8 7 7 6 6 6 7 6 5 5 4 5 6 5 5 4 4 4 3 3 3 4 5 4 4 4 3 2 3 4 4 4 4 4 4 4 5 7 7 9
Wind_Direction
176 225 230 243 246 272 286 274 276 295 344 298 242 258 276 290 293 314 314 319 359 4 26 47 57 56 52 53 52 47 56 37 49 207 210 213 225 226 233 234 229 224 227 221
195 247 284 293 276 273 276 278 286 309 343 314 283 282 278 279 258 256 261 267 300 355 16 35 50 53 51 44 43 42 37 39 44 298 235 223 227 236 236 257 262 250 243 237
236 322 308 278 277 261 255 262 277 291 317 288 286 280 242 230 237 271 336 345 358 9 12 27 43 39 40 28 23 19 27 43 26 8 19 25 82 278 269 283 258 253 242 242
281 309 314 288 269 268 259 283 289 287 282 259 234 264 254 209 187 158 334 345 2 4 18 29 37 34 31 20 15 18 29 37 27 32 36 67 232 246 262 278 272 288 265 263
315 343 306 278 274 274 280 296 280 271 268 269 242 249 253 236 222 229 339 24 30 30 34 33 32 29 26 21 19 14 27 30 23 18 13 290 290 296 310 320 325 321 310 293
249 268 303 288 287 270 276 277 267 239 243 249 223 222 255 228 225 82 56 42 32 29 37 36 30 28 27 24 23 22 26 23 17 15 11 356 346 338 340 336 331 322 315 298
288 213 193 272 285 288 284 238 217 210 215 237 188 201 238 38 64 89 76 54 36 30 33 28 24 24 25 25 22 24 26 21 16 14 9 6 360 353 334 326 321 322 321 320
315 290 139 302 288 258 242 223 209 229 228 271 200 212 184 78 72 71 80 65 44 33 31 28 25 21 23 26 25 25 24 15 14 17 10 9 3 356 343 338 329 318 311 314
332 322 358 337 337 301 241 231 266 296 310 275 233 207 234 93 90 80 72 63 45 31 27 24 24 22 20 19 19 25 26 21 16 16 17 15 9 3 354 346 342 338 332 329
328 306 316 326 299 283 282 332 325 220 255 262 245 221 225 176 150 93 68 50 36 31 23 22 21 18 21 19 13 18 27 26 20 20 17 8 3 0 358 360 358 350 344 342
337 301 303 315 245 258 232 196 268 253 265 268 279 269 67 115 101 92 62 41 25 25 23 22 20 20 20 19 17 14 20 20 18 16 14 12 9 5 6 7 355 346 343 343
342 312 284 265 286 338 314 288 253 234 262 264 275 273 53 81 79 83 43 5 25 30 24 20 17 20 21 17 12 11 14 15 13 11 11 10 5 6 6 0 353 345 338 336
345 350 309 302 94 14 323 293 266 268 264 243 243 252 103 91 70 105 54 360 21 36 28 21 21 18 15 9 7 10 11 10 7 7 9 7 2 2 359 353 352 346 337 333
350 274 236 258 292 310 290 283 266 244 231 244 239 252 268 281 305 349 357 354 359 19 26 15 15 15 10 7 7 10 9 6 3 4 4 1 354 351 348 346 345 341 336 331
332 257 261 277 286 281 275 270 262 249 242 241 253 256 264 264 276 299 313 332 350 355 8 9 5 2 2 6 4 6 3 359 358 357 356 350 345 344 344 343 340 337 338 335
346 287 302 285 278 284 275 265 256 253 251 251 260 268 269 277 272 288 303 323 332 334 352 358 356 351 351 354 353 353 353 349 348 347 342 340 343 344 344 341 340 341 340 338
291 292 307 282 312 325 273 246 233 235 235 234 247 255 273 286 282 262 292 297 284 292 320 326 326 331 337 339 338 332 336 339 339 336 338 340 338 338 338 337 339 338 335 334
190 188 244 290 327 263 248 189 210 233 250 246 250 258 257 267 278 260 252 248 272 298 303 302 305 314 316 322 328 332 338 334 332 332 333 334 336 334 333 334 333 330 327 327
198 189 231 256 274 276 269 230 213 233 260 236 239 248 253 300 312 269 231 182 239 273 291 287 289 296 306 317 329 340 332 329 330 328 330 332 331 327 327 326 323 322 321 320
200 198 214 231 251 255 254 163 118 67 273 237 213 221 228 273 273 265 321 2 324 308 298 302 314 322 325 329 341 334 319 320 319 321 322 323 320 316 313 312 314 317 315 312
179 201 215 227 245 261 244 161 132 190 247 195 191 212 225 234 241 261 289 291 284 288 301 317 323 317 312 322 329 310 305 304 312 321 320 317 315 311 307 308 311 310 310 310
186 191 202 199 223 249 193 156 194 221 227 203 222 227 233 254 277 284 271 267 279 293 305 311 307 303 309 316 306 295 296 305 319 320 315 312 310 309 309 307 308 309 310 308
209 202 196 204 220 233 179 201 224 219 244 250 244 253 242 258 265 271 271 270 274 276 281 280 278 293 305 303 288 284 298 313 317 316 307 304 305 306 306 303 304 306 304 300
231 218 228 252 255 250 238 243 245 238 241 248 242 242 239 254 262 267 266 268 270 273 271 274 282 289 295 301 299 288 307 319 314 304 304 304 306 307 307 301 295 293 292 291
213 188 214 247 262 276 257 238 236 235 239 246 247 237 233 243 253 255 257 259 262 269 272 268 263 271 281 293 296 302 310 316 305 301 301 304 303 304 304 298 289 286 279 275
200 197 204 230 221 216 244 234 221 223 233 233 236 246 240 229 243 252 254 255 256 259 263 265 266 270 280 289 292 297 298 291 288 295 297 299 301 301 300 301 304 295 291 294